Theta_e
317 317 314 308 299 295 291 294 297 296 297 298 300 299 299 298 300 297 308 306 306 309 315 325 333 335 338 339 339 342 342 343 343 343 344 344 345 346 346 346 346 346 346 347 348 348 348 349 348
314 314 309 300 294 290 291 294 294 297 298 297 298 298 298 297 300 302 304 305 303 307 311 322 328 328 330 330 331 333 335 337 339 341 341 341 341 341 342 343 344 345 345 346 346 346 348 349 348
313 310 305 295 290 290 291 294 295 296 296 298 297 298 298 297 300 301 302 302 301 304 308 317 321 323 324 324 326 327 329 331 330 331 334 336 338 338 338 338 338 340 343 344 345 345 346 348 348
309 306 298 293 292 293 295 295 296 296 297 298 297 295 297 300 301 301 301 300 299 301 306 314 317 318 320 320 321 322 324 324 324 325 327 327 327 332 332 332 334 335 337 340 343 343 344 345 346
302 299 293 291 292 294 294 296 296 296 296 296 296 294 294 298 299 298 298 298 298 298 302 308 313 314 316 316 317 317 318 318 318 319 320 321 325 320 319 321 324 326 328 331 334 337 339 341 344
300 297 292 290 291 294 295 296 296 295 295 295 295 293 294 298 296 297 296 297 297 297 299 301 306 309 311 312 313 313 314 313 313 313 313 316 316 313 313 314 317 319 321 322 326 330 332 336 339
299 294 291 290 290 293 295 295 294 294 294 295 296 293 294 295 297 296 296 296 296 297 297 297 299 301 305 307 308 309 309 310 310 310 309 310 309 309 308 309 312 314 315 317 322 325 324 326 332
296 295 290 289 290 292 295 295 295 296 295 295 296 293 292 295 296 295 295 294 295 295 294 295 296 298 298 299 304 305 305 306 306 306 305 304 304 305 304 305 308 311 311 313 317 317 317 316 316
300 293 290 291 290 294 294 295 294 294 293 293 294 293 294 295 294 292 292 292 293 293 294 294 294 295 296 296 297 298 301 301 301 301 303 302 300 301 300 301 303 306 308 309 312 310 310 310 309
295 291 293 294 293 294 294 295 294 293 291 292 290 291 292 293 291 290 290 290 290 291 292 293 293 293 294 294 294 295 295 295 296 297 299 299 298 299 298 298 299 302 304 305 307 307 306 305 305
294 291 295 295 296 296 295 294 293 293 291 294 292 290 291 291 290 290 289 289 290 290 291 291 292 292 293 294 293 294 295 294 295 296 297 298 296 296 296 296 296 298 299 300 301 302 302 303 303
293 294 295 297 297 295 294 293 292 292 296 294 293 292 291 290 289 288 288 288 289 289 290 290 291 292 292 292 292 293 293 293 293 294 296 296 294 294 293 293 294 295 296 298 299 299 301 301 301
293 294 296 296 296 295 294 293 293 291 294 292 290 290 290 290 289 288 289 289 288 288 289 290 291 291 291 291 291 292 292 292 293 293 294 294 292 292 291 291 292 293 295 294 295 296 298 299 300
293 295 295 295 295 295 294 292 292 293 288 288 288 289 289 289 288 287 287 287 287 288 289 290 290 290 291 291 291 291 291 291 292 292 292 292 291 290 289 290 290 291 293 291 292 293 296 297 299
293 291 292 292 293 293 293 291 290 293 288 288 286 287 287 288 287 287 287 287 288 288 289 289 290 290 290 290 290 290 291 290 290 290 291 291 290 289 288 288 288 289 289 289 290 291 293 295 296
290 289 288 291 292 292 292 289 293 290 287 288 286 285 286 287 287 287 287 287 287 287 288 289 291 290 289 289 289 289 290 289 289 288 289 289 288 287 287 287 287 287 287 288 287 288 288 290 292
289 287 286 289 292 291 290 289 292 288 286 288 286 286 286 286 285 286 286 286 286 287 287 288 289 289 289 289 289 288 288 288 287 287 287 288 287 286 285 285 286 286 286 286 285 286 286 286 287
286 285 286 286 289 289 288 288 293 290 286 288 288 286 285 285 286 286 286 285 285 286 286 287 288 288 288 288 287 287 287 286 286 286 286 286 286 286 284 285 285 284 284 284 284 284 285 286 287
287 286 286 287 288 287 287 288 292 294 288 288 287 285 285 286 288 285 285 284 284 285 285 286 286 287 287 286 285 284 284 284 284 284 285 284 284 285 283 283 284 283 282 282 283 283 284 286 287
286 285 285 286 286 286 285 286 290 292 292 294 291 287 286 286 283 283 284 283 283 284 285 285 285 286 286 285 284 284 283 283 283 284 284 283 283 283 282 282 282 282 281 281 282 282 282 281 283
285 284 284 285 284 284 282 282 283 287 289 290 290 290 288 287 284 283 283 282 283 283 284 284 284 285 285 285 284 283 282 282 281 282 281 282 282 282 282 282 282 281 281 280 281 282 279 278 281
284 286 285 283 282 279 283 280 282 286 288 289 289 287 288 286 286 284 283 282 282 283 284 284 284 284 284 284 282 281 280 279 280 280 280 280 281 281 281 281 281 281 281 280 281 281 279 279 278
286 284 283 282 281 278 279 276 282 281 284 288 290 288 287 286 285 283 283 283 283 284 283 283 283 282 283 283 282 281 279 279 279 279 278 279 279 280 280 280 280 280 280 280 280 279 278 279 278
286 283 282 278 277 273 281 280 280 281 284 287 288 288 287 284 283 283 284 284 282 283 283 282 281 281 282 281 281 279 277 277 276 277 276 277 278 278 279 279 279 279 279 279 279 279 278 278 278
284 283 278 276 273 277 276 275 284 285 285 288 289 288 285 284 281 281 282 281 282 282 282 281 281 280 280 280 279 278 277 276 275 275 275 275 275 276 276 277 277 278 278 278 278 278 277 278 278
282 284 279 273 272 279 273 275 284 285 289 286 284 284 282 282 281 281 282 282 283 282 281 281 280 279 279 278 277 277 276 275 275 275 274 274 274 274 276 276 276 277 277 277 277 277 277 277 277
281 280 283 276 264 271 280 282 284 285 284 283 282 280 281 282 280 281 281 282 282 282 281 281 279 278 277 277 276 275 274 273 273 273 273 273 274 274 275 275 275 275 275 276 276 276 276 276 276
282 283 278 278 273 268 277 280 283 284 286 286 284 283 283 282 280 280 281 281 282 282 280 280 279 277 277 276 274 274 273 273 273 272 272 272 272 273 273 273 274 274 274 274 274 275 275 275 275
279 279 278 280 277 273 273 281 283 285 286 286 288 285 283 282 280 280 280 281 281 280 279 278 276 275 275 274 273 272 272 272 271 271 271 271 272 272 272 272 272 272 272 273 273 273 273 273 273
280 282 283 278 276 274 274 281 286 287 286 286 287 285 283 282 280 279 280 280 279 279 277 276 275 274 273 272 272 271 271 270 270 270 270 271 270 271 271 271 271 271 271 271 270 271 271 271 270
Wind_Speed
3 4 2 4 4 5 1 3 0 4 3 0 2 3 5 3 3 2 6 5 6 4 8 9 14 15 15 17 17 17 17 17 16 16 16 17 16 14 13 12 10 11 11 13 12 12 10 7 6
3 2 4 3 5 3 3 2 5 4 5 7 5 3 2 2 1 4 4 6 5 5 8 8 14 17 16 17 17 18 18 18 18 17 18 18 17 17 16 16 15 14 13 13 13 13 13 9 8
4 4 3 5 3 4 4 4 5 2 7 3 4 3 4 6 2 4 3 4 6 8 8 9 16 15 16 17 18 18 18 18 18 17 16 15 18 18 18 18 17 17 17 15 15 14 13 12 10
3 4 4 5 2 3 2 5 5 7 2 2 3 4 1 1 5 4 6 6 9 7 6 10 14 15 16 17 18 18 17 18 17 17 18 18 16 17 20 20 20 19 19 18 17 16 16 14 11
4 3 4 3 2 2 4 4 8 7 4 4 4 5 3 1 6 7 7 6 9 7 7 8 15 16 17 17 18 18 17 18 18 17 17 17 17 18 17 17 18 18 19 20 19 19 19 16 14
4 3 4 2 3 3 3 5 7 5 4 4 3 7 6 4 8 6 7 7 6 9 7 8 12 16 17 17 18 18 17 17 17 17 16 15 16 16 16 16 16 16 17 18 19 18 20 20 17
6 4 3 3 3 2 6 8 5 7 7 6 7 8 2 7 7 8 7 6 7 7 8 7 7 10 14 16 16 17 17 16 17 17 18 18 18 17 18 16 16 16 16 18 16 17 19 19 19
5 5 3 3 4 5 4 3 2 3 4 3 3 6 5 8 10 8 6 7 7 6 7 7 7 6 8 7 16 17 17 17 16 17 16 15 15 16 18 17 19 18 17 17 16 17 19 20 19
3 5 2 4 5 3 4 3 1 1 4 3 5 3 2 11 12 8 6 5 5 5 5 5 6 7 6 9 10 13 16 16 15 14 16 12 9 10 12 14 17 18 18 19 17 17 17 18 16
5 4 6 5 5 2 4 4 7 4 2 5 4 2 4 13 12 12 10 9 6 5 4 4 5 6 6 7 8 8 7 7 8 9 10 7 9 9 9 10 15 16 16 16 18 19 17 13 9
2 4 3 3 4 3 4 3 6 6 6 10 11 9 12 9 11 9 6 6 6 5 4 4 5 5 6 6 4 4 4 5 6 10 9 8 8 8 7 6 6 7 11 8 10 11 8 12 9
1 2 3 3 3 4 4 7 4 9 6 1 6 14 13 14 13 12 12 11 10 7 5 4 4 5 5 4 4 4 4 5 5 7 10 8 6 7 8 7 9 8 7 9 9 7 10 11 12
3 2 3 4 4 3 4 6 6 9 8 1 6 12 16 14 11 7 8 7 8 8 7 6 5 5 4 5 4 5 6 6 6 6 6 6 7 7 8 7 7 8 9 9 9 9 9 10 11
2 2 5 3 3 3 4 3 1 2 6 6 9 14 14 16 14 7 9 10 9 8 8 6 5 4 4 5 5 4 4 4 3 3 4 7 6 7 7 7 8 8 9 10 9 10 10 9 10
2 3 6 4 2 4 5 7 12 4 4 7 10 11 13 14 12 16 13 11 11 8 8 7 6 5 5 4 3 2 1 2 3 3 5 5 6 6 7 6 6 7 8 10 9 10 10 10 10
1 3 3 2 4 2 5 11 7 6 8 11 11 12 14 17 14 11 12 10 9 9 9 7 6 6 5 4 2 1 0 1 2 3 3 4 5 6 6 6 6 7 7 7 8 8 9 10 10
5 4 4 7 7 3 6 11 6 5 7 10 12 14 14 12 10 13 12 12 12 12 10 8 7 7 5 3 1 1 2 2 2 3 3 4 5 5 6 6 6 7 6 6 7 8 8 10 10
6 4 5 7 4 4 5 17 18 7 10 17 14 14 14 16 21 14 14 11 11 11 9 8 6 6 4 2 1 2 2 3 3 3 4 5 6 6 6 6 6 7 6 6 7 9 8 9 10
3 4 7 5 4 4 10 15 19 19 9 16 15 13 16 21 12 11 13 12 10 9 9 9 8 7 4 2 2 2 3 3 3 3 5 7 7 7 7 6 7 7 7 9 9 9 11 8 10
4 4 8 7 1 6 9 18 18 17 21 18 18 13 17 12 12 15 15 13 13 13 11 9 8 8 7 4 3 2 2 3 4 4 5 6 8 8 8 8 8 8 8 10 10 9 9 7 5
5 7 5 8 6 4 8 11 8 6 7 13 11 11 12 17 18 17 19 18 14 14 13 12 10 9 7 7 3 1 2 3 3 4 5 6 9 10 9 9 9 9 8 8 10 8 10 10 8
4 6 2 3 3 5 4 17 3 7 11 9 9 10 13 14 13 16 19 18 17 15 11 11 9 9 8 9 6 5 4 3 3 3 6 9 9 10 9 9 9 10 8 11 10 8 9 10 12
7 3 4 1 3 3 4 6 5 4 8 17 10 10 10 11 15 17 20 21 18 15 13 11 9 7 6 7 6 5 5 5 6 6 9 10 10 9 10 10 10 10 9 11 12 12 11 11 13
6 4 4 4 2 2 9 10 6 7 10 9 7 6 7 8 11 12 15 16 16 13 13 11 10 7 7 7 6 6 7 7 6 6 7 7 7 7 9 10 10 11 11 12 12 13 15 14 15
3 6 6 7 3 11 5 3 15 7 12 13 11 7 7 7 10 12 16 16 16 17 14 12 11 9 8 6 5 6 7 6 7 8 7 9 7 8 9 11 12 10 13 14 14 15 15 15 14
7 10 9 10 5 15 2 11 11 16 13 7 7 7 6 7 9 13 16 17 18 18 15 13 12 7 7 6 5 4 4 4 5 7 7 7 8 9 12 12 13 15 15 15 15 13 13 15 14
6 7 3 5 2 3 7 14 6 7 10 7 11 7 11 9 10 12 13 16 17 17 16 14 12 8 8 6 3 3 3 4 6 9 8 7 9 9 13 14 15 16 16 17 17 13 16 15 15
6 6 4 2 3 7 13 25 19 10 16 11 12 15 14 7 9 11 13 14 14 15 13 13 10 9 7 6 4 2 3 5 6 7 9 10 11 12 13 15 15 16 16 17 17 15 16 17 14
5 4 2 3 5 7 10 24 5 8 10 11 14 10 10 10 11 13 12 12 13 12 12 12 9 9 7 5 3 2 4 5 5 7 8 10 12 13 14 15 16 16 17 17 16 18 19 19 19
3 12 13 7 9 6 2 33 2 1 7 7 8 8 6 8 11 11 12 13 14 16 13 12 9 9 7 6 4 3 3 4 6 8 9 10 12 13 14 15 16 17 18 17 18 19 19 19 20
Wind_Direction
85 115 94 45 63 65 148 228 222 144 150 322 84 161 152 61 153 173 162 45 16 345 337 357 44 49 44 49 46 44 45 41 38 33 30 26 16 6 351 343 338 330 329 327 326 326 327 328 312
110 112 47 82 89 82 252 236 208 197 141 132 91 95 88 120 141 135 141 17 27 11 2 30 49 55 55 53 52 50 49 46 40 37 36 32 25 19 13 8 0 349 336 328 321 320 322 323 320
127 50 81 93 111 158 189 206 162 98 144 157 111 33 151 159 137 131 80 60 49 41 14 48 56 57 59 58 56 54 53 51 45 38 33 29 25 26 23 17 9 4 354 335 322 317 313 319 316
109 25 45 78 139 210 209 164 149 131 212 142 130 133 113 355 156 125 104 92 78 58 32 64 64 63 63 60 58 59 58 55 50 45 44 39 30 27 28 22 17 14 7 360 348 331 320 317 313
39 58 58 81 243 230 239 173 161 167 167 152 169 180 186 173 117 115 109 101 94 72 47 43 62 61 62 62 62 60 59 56 52 49 47 43 47 36 28 25 20 13 5 1 356 353 346 329 316
47 97 59 232 240 228 249 172 161 168 159 147 126 148 198 145 149 141 126 117 100 86 69 57 51 59 59 58 59 59 57 58 54 52 50 47 46 38 32 26 20 17 10 6 360 355 355 350 342
115 87 199 196 239 226 213 152 180 169 157 221 139 152 225 194 167 146 132 109 89 74 71 63 61 59 57 61 57 55 51 50 49 48 43 38 34 31 27 23 18 13 7 3 3 4 360 356 351
104 90 127 235 208 255 177 123 45 157 199 75 161 198 216 194 152 137 117 99 89 79 72 62 55 60 65 57 55 54 50 48 43 39 39 37 35 30 23 17 10 7 5 1 5 0 357 352 348
135 70 216 233 161 241 158 152 23 23 123 233 204 171 293 130 135 130 138 124 106 86 71 64 56 49 47 53 49 47 44 43 39 33 27 24 23 21 21 13 10 7 3 356 357 355 354 352 348
87 113 216 193 200 259 188 183 171 165 174 243 254 200 114 139 156 164 171 159 149 128 91 78 73 63 59 62 51 50 51 46 40 32 26 22 18 13 9 9 6 2 359 356 351 349 348 349 344
175 173 213 229 215 184 175 220 159 158 231 220 207 165 162 167 176 171 161 164 158 144 121 90 87 80 69 64 58 46 44 35 30 27 24 19 13 7 3 356 357 359 357 352 345 344 346 337 332
160 218 203 277 211 157 205 130 214 198 224 42 210 166 168 179 182 175 174 174 166 156 134 126 115 107 91 89 70 60 49 41 33 21 19 18 10 4 0 358 354 354 351 347 346 336 327 326 320
177 221 226 281 268 242 137 233 234 241 228 167 140 162 180 183 185 186 180 168 157 156 160 162 140 108 97 81 63 49 39 34 23 20 17 20 9 0 353 354 354 350 348 348 337 330 323 317 313
167 275 271 299 259 247 215 283 356 235 139 160 168 186 188 188 183 172 177 176 177 166 166 162 126 113 94 74 57 48 40 31 23 15 15 22 10 358 350 345 350 348 346 338 332 330 321 316 313
123 311 316 232 211 246 164 280 231 208 174 188 199 194 194 201 186 191 183 181 176 175 161 165 145 137 112 104 86 79 68 32 18 2 4 13 4 347 338 338 344 346 334 326 329 328 325 313 313
91 60 13 228 163 225 155 269 264 173 172 219 210 203 201 208 205 194 188 178 172 161 171 172 158 145 135 137 121 111 85 3 2 355 338 339 343 336 334 331 332 335 329 327 329 322 322 319 313
357 249 232 299 203 164 176 268 238 166 208 236 219 213 209 211 210 202 187 178 174 175 170 170 167 170 160 149 114 309 325 344 317 313 310 296 315 321 328 318 317 332 327 324 319 322 313 313 312
226 237 247 239 220 207 222 258 275 221 214 240 226 214 210 215 215 196 189 183 176 172 169 166 171 171 161 159 342 307 286 267 282 291 290 310 305 297 305 311 312 326 323 316 314 314 313 305 307
168 199 235 251 233 218 243 251 258 272 241 253 241 210 212 221 211 183 184 180 172 174 167 172 169 181 164 173 208 227 227 252 250 273 265 287 297 292 311 311 314 321 323 320 310 311 310 313 322
168 211 259 283 221 193 272 261 263 250 257 254 250 225 222 216 189 189 182 180 184 178 181 172 179 177 190 178 186 203 230 254 255 257 257 285 284 300 310 313 309 310 313 311 302 306 316 306 311
205 193 230 235 333 249 302 263 237 286 251 267 238 225 211 210 201 192 188 188 181 184 182 180 180 184 186 180 161 185 276 267 287 290 294 286 287 297 299 302 304 300 300 300 295 296 304 302 301
227 208 220 289 20 256 19 293 216 242 273 257 244 207 221 205 202 195 190 189 189 188 184 180 176 178 182 172 177 190 218 246 235 255 274 282 278 285 284 283 282 283 288 291 286 288 285 287 279
223 127 140 123 215 12 245 270 223 13 273 265 263 224 218 204 196 195 193 193 186 183 182 183 176 176 167 174 183 195 230 251 265 274 282 278 275 273 284 283 280 282 285 285 283 283 278 267 267
135 96 70 65 104 261 224 201 166 185 209 257 258 233 220 198 200 199 193 188 185 179 179 176 173 174 172 178 188 202 232 250 267 275 277 280 290 287 279 285 288 285 286 286 286 282 269 270 265
103 70 326 318 341 245 135 240 256 234 228 219 230 230 219 211 193 186 184 187 186 185 180 177 175 176 175 177 191 209 233 250 275 285 290 300 305 306 301 302 301 293 287 284 281 277 271 270 264
174 166 169 240 235 284 53 244 269 220 240 217 252 259 245 219 199 200 196 192 191 184 179 178 174 171 173 178 203 223 246 251 268 279 283 288 296 299 303 296 286 280 280 278 276 274 271 271 266
183 192 172 98 137 313 239 262 281 225 254 247 241 230 243 224 202 206 198 198 189 182 183 177 174 169 174 180 202 254 274 287 290 295 296 298 305 298 295 292 288 285 283 281 281 274 273 273 270
174 159 86 1 251 253 268 273 270 215 236 231 243 227 234 220 203 204 201 195 193 184 171 174 174 170 156 163 182 224 285 289 294 299 304 306 292 292 292 293 292 291 289 287 283 277 275 274 270
144 199 191 165 162 195 268 268 196 203 200 210 235 223 212 214 207 207 201 193 191 176 168 171 157 151 161 154 163 236 277 288 303 294 291 288 291 294 294 296 295 293 290 288 287 282 281 275 275
183 196 177 191 229 242 204 270 62 210 192 218 246 223 214 215 211 202 193 185 183 183 173 162 153 154 159 158 166 224 274 296 294 280 285 288 294 294 297 296 296 296 292 293 290 287 284 281 278